Zurück zum Katalog

METEOR 2-5 DEB

AktivPO
NORAD 45513·DEBRIS·🇷🇺 Russia

Gestartet Oct 31, 1979 von Plesetsk Cosmodrome

Loading…

Nächste Überflüge (nächste 24 Stunden)

TLE

VeraltetSource: Space-Track

Epoche: Aug 30, 2026, 06:21 UTC

1 45513U 79095CV  26242.26514815  .00004276  00000-0  13532-2 0  9991
2 45513  81.1939  75.0360 0007630 197.6459 162.4464 14.40007924675218

Verfolge METEOR 2-5 DEB in Echtzeit mit AllMySat

Download on the App Store